Location: Unspecified
(0.0000°N, 0.0000°E)
Time: 20:24:43
(UTC+01:00)

ADEOS II - Visible Passes

Search period start: 13 February 2016 00:00
Search period end: 23 February 2016 00:00
Orbit: 800 x 802 km, 98.3° (Epoch: 13 February)

Date Brightness Start Highest point End Pass type
(mag) Time Alt. Az. Time Alt. Az. Time Alt. Az.
13 Feb 1.9 05:28:03 10° N 05:33:18 85° WNW 05:38:35 10° SSW visible
14 Feb 3.0 05:02:04 10° NNE 05:07:05 46° ESE 05:12:06 10° S visible
14 Feb 3.8 06:45:43 10° WNW 06:46:31 10° WNW 06:47:20 10° W visible
15 Feb 4.2 04:36:50 10° NE 04:40:52 23° ESE 04:44:55 10° SSE visible
15 Feb 3.1 06:16:18 10° NNW 06:20:19 23° WNW 06:24:22 10° SW visible
16 Feb 5.1 04:13:50 10° E 04:14:41 10° ESE 04:15:31 10° ESE visible
16 Feb 2.3 05:49:06 10° N 05:54:07 46° WNW 05:59:08 10° SSW visible
17 Feb 2.0 05:22:37 10° NNE 05:27:53 85° ESE 05:33:09 10° S visible
18 Feb 3.3 04:56:45 10° NNE 05:01:39 40° ESE 05:06:34 10° S visible
18 Feb 3.7 06:39:05 10° NW 06:41:06 12° WNW 06:43:08 10° W visible
19 Feb 4.4 04:31:42 10° ENE 04:35:27 20° ESE 04:39:11 10° SSE visible
19 Feb 3.0 06:10:37 10° NNW 06:14:53 26° WNW 06:19:12 10° SW visible
20 Feb 2.1 05:43:34 10° N 05:48:40 53° WNW 05:53:48 10° SSW visible
21 Feb 2.2 05:17:12 10° NNE 05:22:27 74° ESE 05:27:41 10° S visible
22 Feb 3.5 04:51:28 10° NE 04:56:13 35° ESE 05:00:59 10° SSE visible
22 Feb 3.6 06:32:58 10° NW 06:35:40 14° WNW 06:38:23 10° WSW visible
